TimeEST,TemperatureF,Dew PointF,Humidity,Sea Level PressureIn,VisibilityMPH,Wind Direction,Wind SpeedMPH,Gust SpeedMPH,PrecipitationIn,Events,Conditions,WindDirDegrees,DateUTC
12:53 AM,63.0,57.9,84,30.22,10.0,East,6.9,-,N/A,,Clear,90,2013-01-29 05:53:00
1:53 AM,62.1,57.9,86,30.22,10.0,ENE,5.8,-,N/A,,Clear,60,2013-01-29 06:53:00
2:53 AM,61.0,57.9,90,30.20,10.0,East,3.5,-,N/A,,Clear,80,2013-01-29 07:53:00
3:53 AM,57.9,57.0,97,30.19,10.0,ESE,5.8,-,N/A,,Clear,110,2013-01-29 08:53:00
4:53 AM,59.0,57.9,96,30.19,9.0,East,4.6,-,N/A,,Clear,90,2013-01-29 09:53:00
5:53 AM,60.1,59.0,96,30.19,8.0,East,5.8,-,N/A,,Clear,80,2013-01-29 10:53:00
6:53 AM,60.1,59.0,96,30.21,7.0,East,4.6,-,N/A,,Clear,80,2013-01-29 11:53:00
7:53 AM,61.0,60.1,97,30.21,4.0,East,4.6,-,N/A,,Clear,90,2013-01-29 12:53:00
8:53 AM,66.0,64.0,93,30.22,7.0,East,6.9,-,N/A,,Clear,90,2013-01-29 13:53:00
9:53 AM,73.9,66.0,76,30.22,10.0,ESE,10.4,-,N/A,,Clear,120,2013-01-29 14:53:00
10:53 AM,78.1,66.0,66,30.20,10.0,SE,12.7,-,N/A,,Clear,130,2013-01-29 15:53:00
11:53 AM,81.0,63.0,54,30.17,10.0,SSE,15.0,-,N/A,,Clear,160,2013-01-29 16:53:00
12:53 PM,84.0,63.0,49,30.13,10.0,SSE,11.5,-,N/A,,Partly Cloudy,150,2013-01-29 17:53:00
1:53 PM,80.1,64.0,58,30.11,10.0,SSW,16.1,-,N/A,,Scattered Clouds,210,2013-01-29 18:53:00
2:53 PM,78.1,64.9,64,30.11,10.0,SSW,15.0,-,N/A,,Mostly Cloudy,210,2013-01-29 19:53:00
3:53 PM,75.9,64.9,69,30.10,10.0,South,11.5,-,N/A,,Overcast,190,2013-01-29 20:53:00
4:53 PM,75.9,64.0,67,30.10,10.0,South,9.2,-,N/A,,Overcast,190,2013-01-29 21:53:00
5:53 PM,73.9,64.0,71,30.09,10.0,South,10.4,-,N/A,,Clear,180,2013-01-29 22:53:00
6:53 PM,73.0,64.9,76,30.10,10.0,South,9.2,-,N/A,,Clear,190,2013-01-29 23:53:00
7:53 PM,73.0,64.9,76,30.10,10.0,SSE,10.4,-,N/A,,Mostly Cloudy,160,2013-01-30 00:53:00
8:53 PM,73.0,66.0,79,30.11,10.0,South,11.5,-,N/A,,Overcast,170,2013-01-30 01:53:00
9:53 PM,72.0,66.0,81,30.09,10.0,SSE,10.4,-,N/A,,Overcast,150,2013-01-30 02:53:00
10:53 PM,70.0,64.9,84,30.09,10.0,SE,8.1,-,N/A,,Scattered Clouds,140,2013-01-30 03:53:00
11:53 PM,70.0,66.0,87,30.10,10.0,SE,8.1,-,N/A,,Clear,140,2013-01-30 04:53:00